CW4354 Weather Reports


time (UTC)temp
F
wind
direction
speed
knots
gust
knots
rain 1hr
in
rain 24hr
in
rain mn
in
humidity
%
barometer
mb
20260506201547 61 0 0.0 0.0 0.01 0.03 0.03 95 1006.6
20260506200125 61 0 0.0 0.0 0.01 0.03 0.03 95 1006.8
20260506194540 61 0 0.0 0.0 0.02 0.03 0.03 95 1006.9
20260506193047 61 0 0.0 0.0 0.02 0.03 0.03 94 1007.1
20260506191547 61 0 0.0 0.0 0.02 0.02 0.02 94 1007.3
20260506190044 61 0 0.0 0.0 0.02 0.02 0.02 94 1007.6
20260506184554 61 0 0.0 0.0 0.01 0.01 0.01 94 1007.5
20260506183049 61 0 0.0 0.0 0.01 0.01 0.01 93 1007.5
20260506181549 61 0 0.0 0.0 0.00 0.00 0.00 93 1007.6
20260506180055 61 0 0.0 0.0 0.00 0.00 0.00 93 1007.5
20260506174548 62 0 0.0 0.0 0.00 0.00 0.00 93 1007.7
20260506173111 62 0 0.0 0.0 0.00 0.00 0.00 93 1007.8
20260506171552 62 0 0.0 0.0 0.00 0.00 0.00 93 1007.9
20260506170051 62 0 0.0 0.0 0.00 0.00 0.00 93 1008.1
20260506164543 62 0 0.0 0.0 0.00 0.00 0.00 93 1007.9
20260506163051 62 0 0.0 0.0 0.00 0.00 0.00 92 1008.1
20260506161555 62 0 0.0 0.0 0.00 0.00 0.00 92 1008.6
20260506160105 63 0 0.0 0.0 0.00 0.00 0.00 91 1009.1
20260506154552 63 0 0.0 0.0 0.00 0.00 0.00 90 1009.3
20260506153050 64 0 0.0 0.0 0.00 0.00 0.00 88 1009.0
20260506151541 64 0 0.0 0.0 0.00 0.00 0.00 88 1009.1
20260506150054 64 0 0.0 0.0 0.00 0.00 0.00 84 1008.9
20260506144552 66 0 0.0 0.0 0.00 0.00 0.00 79 1009.1
20260506143052 66 0 0.0 0.0 0.00 0.00 0.00 75 1009.1
20260506141551 66 0 0.0 0.0 0.00 0.00 0.00 76 1009.1
20260506140051 66 0 0.0 0.0 0.00 0.00 0.00 77 1008.9
20260506134609 66 0 0.0 0.0 0.00 0.00 0.00 76 1009.0
20260506133047 66 0 0.0 0.0 0.00 0.00 0.00 75 1009.1
20260506131606 66 0 0.0 0.0 0.00 0.00 0.00 76 1009.4
20260506130045 66 0 0.0 0.0 0.00 0.00 0.00 76 1009.1
20260506124551 65 0 0.0 0.0 0.00 0.00 0.00 76 1009.3
20260506123050 65 0 0.0 0.0 0.00 0.00 0.00 76 1009.2
20260506121549 65 0 0.0 0.0 0.00 0.00 0.00 77 1009.1
20260506120051 65 0 0.0 0.0 0.00 0.00 0.00 78 1009.1
20260506114554 65 0 0.0 0.0 0.00 0.00 0.00 78 1009.0
20260506113051 65 0 0.0 0.0 0.00 0.00 0.00 78 1009.3
20260506111557 65 0 0.0 0.0 0.00 0.00 0.00 79 1009.0
20260506110051 64 0 0.0 0.0 0.00 0.00 0.00 78 1009.0
20260506104614 64 0 0.0 0.0 0.00 0.00 0.00 80 1008.8
20260506103050 64 0 0.0 0.0 0.00 0.00 0.00 81 1008.8
20260506101549 63 0 0.0 0.0 0.00 0.00 0.00 81 1008.8
20260506100049 64 0 0.0 0.0 0.00 0.00 0.00 80 1008.8
20260506094545 64 0 0.0 0.0 0.00 0.01 0.00 80 1008.9
20260506093051 64 0 0.0 0.0 0.00 0.01 0.00 80 1008.7
20260506091542 64 0 0.0 0.0 0.00 0.01 0.00 81 1008.8
20260506090041 63 0 0.0 0.0 0.00 0.01 0.00 81 1008.9
20260506084546 63 0 0.0 0.0 0.00 0.01 0.00 82 1008.9
20260506083104 63 0 0.0 0.0 0.00 0.01 0.00 81 1008.9
20260506081552 63 0 0.0 0.0 0.00 0.01 0.00 81 1008.9
20260506073048 62 0 0.0 0.0 0.00 0.01 0.00 79 1009.1
20260506071551 63 0 0.0 0.0 0.00 0.01 0.00 78 1009.1
20260506061549 64 0 0.0 0.0 0.00 0.01 0.00 74 1009.6
20260506044546 64 0 0.0 0.0 0.00 0.01 0.00 73 1010.1
20260506043044 64 0 0.0 0.0 0.00 0.01 0.00 71 1010.0
20260506041542 65 0 0.0 0.0 0.00 0.01 0.00 69 1010.0
20260506040041 66 0 0.0 0.0 0.00 0.01 0.00 68 1010.1
20260506034541 66 0 0.0 0.0 0.00 0.01 0.01 67 1010.0
20260506033049 67 0 0.0 0.0 0.00 0.01 0.01 66 1009.9
20260506031542 67 0 0.0 0.0 0.00 0.01 0.01 66 1009.8
20260506030042 67 0 0.0 0.0 0.00 0.01 0.01 64 1009.8
20260506024550 68 0 0.0 0.0 0.00 0.01 0.01 61 1009.8
20260506023047 69 0 0.0 0.0 0.00 0.01 0.01 58 1009.8
20260506021547 69 0 0.0 0.0 0.00 0.01 0.01 56 1009.7
20260506020050 70 0 0.0 0.0 0.00 0.01 0.01 55 1009.8
20260506014541 71 0 0.0 0.0 0.00 0.01 0.01 52 1009.5
20260506013048 72 0 0.0 0.0 0.00 0.01 0.01 52 1009.4
20260506011613 72 0 0.0 0.0 0.00 0.01 0.01 52 1009.3
20260506010047 72 0 0.0 0.0 0.00 0.01 0.01 51 1009.0
20260506004602 73 0 0.0 0.0 0.00 0.01 0.01 50 1008.7
20260506003050 73 0 0.0 0.0 0.00 0.01 0.01 49 1008.6
20260506001549 74 0 0.0 0.0 0.00 0.01 0.01 47 1008.3
20260506000115 75 0 0.0 0.0 0.00 0.01 0.01 44 1008.3
20260505234553 76 0 0.0 0.0 0.00 0.01 0.01 43 1008.1
20260505233056 77 0 0.0 0.0 0.00 0.01 0.01 40 1008.0
20260505231602 78 0 0.0 2.6 0.00 0.01 0.01 39 1007.9
20260505224550 79 0 0.0 0.0 0.00 0.01 0.01 40 1007.7
20260505223046 79 0 0.0 0.0 0.00 0.01 0.01 38 1007.6
20260505221557 79 0 0.0 3.5 0.00 0.01 0.01 38 1007.7
20260505220053 79 0 0.0 0.9 0.00 0.01 0.01 35 1007.8
20260505214547 80 0 0.0 1.7 0.00 0.01 0.01 36 1007.8
20260505213045 80 0 0.0 8.7 0.00 0.01 0.01 34 1007.6
20260505211543 82 0 0.0 5.2 0.00 0.01 0.01 33 1007.4
20260505210041 82 0 0.9 7.8 0.00 0.01 0.01 34 1007.2
20260505204553 82 296 0.9 2.6 0.00 0.01 0.01 32 1007.4
20260505203056 83 0 0.0 2.6 0.00 0.01 0.01 33 1007.5